Location: Newark
(18.8808°N, 99.0693°W)
Time: 09:15:24
(UTC+00:00)

ISS - Visible Passes

Search period start: 17 July 2019 00:00
Search period end: 27 July 2019 00:00
Orbit: 409 x 418 km, 51.6° (Epoch: 17 July)

Date Brightness Start Highest point End Pass type
(mag) Time Alt. Az. Time Alt. Az. Time Alt. Az.
17 Jul -0.4 03:11:05 10° WNW 03:12:51 14° NW 03:14:37 10° NNW visible
17 Jul -1.6 11:23:56 10° NNW 11:26:54 31° NE 11:29:52 10° ESE visible
18 Jul -1.4 02:20:37 10° WSW 02:23:31 27° NW 02:26:24 10° NNE visible
18 Jul -0.5 10:35:34 10° N 10:37:34 15° NE 10:39:33 10° E visible
19 Jul -3.7 11:21:44 10° NW 11:24:57 52° SW 11:28:09 10° SSE visible
20 Jul -3.3 10:33:25 18° NNW 10:35:42 59° NE 10:38:56 10° SE visible
